Showing default

KUIPER-00140, 65965

Orbit data source: Space-Track

KUIPER-00140, 65965 is a payload satellite owned by Kuiper Systems (US) in LEO that was launched on Tue, 14 Oct 2025 UTC via an FALCON 9 launch vehicle from the Air Force Eastern Test Range (AFETR). Payload-class satellites include a variety of spacecraft equipped with specific instruments for various scientific and technological missions. These include communications satellites like Starlink; space stations such as the ISS; scientific satellites like the Hubble; Earth observation satellites from companies like Planet Labs, Umbra, and HawkEye 360; GPS; miniature CubeSats for education and research; and military/defense satellites.

Loading next visibility...
Identifier
65965, 2025-228U
Orbit
LEO
Country
Flag of USUS
Related business
Manufacturer
Kuiper Systems
Mission
Operational Commercial Communications
Bus & Motor
KUIPER, Unknown motor
Mass
~490 kg wet, ~490 kg dry
Launch date (UTC)
2025-10-14 (8 months ago)
Launch vehicle
FALCON 9
Launch site
Air Force Eastern Test Range (AFETR)
Object type
Payload
Rocket body
Debris
Shape & HBR
Box + 2 Pan, 3.4 m
Radar Cross Section
2.326 m², Large (>1 m²)

Expand to show TLE details & history
Last TLE update: 11 hours ago

TLE from 11 hours ago
0 KUIPER-00140
1 65965U 25228U   26171.39065575  .00000405  00000-0  82123-4 0  9996
2 65965  51.8983 251.5229 0000539  91.5845 268.5179 14.79931668 38645
Epoch: 2026-06-20T09:22Z
TLE epoch observation values (Epoch: 2026-06-20T09:22:32.656Z)
Latitude
-0.00004°
Longitude
-157.71916°
Altitude
630.296 km
Speed
7.544 km/s
True Right ascension
16h 46m 05s
True Declination
0° 00' 00"
Sunlit
Object was in full shadow at epoch
Visualization orbit readout
Latitude
Unknown
Longitude
Unknown
Altitude
Unknown
Speed
Unknown
Apparent Right ascension
Unknown
Apparent Declination
Unknown
Sunlit
N/A
Visualization observer readout
Local Sidereal Time
07:14:16
Azimuth
Unknown
Elevation
Unknown
Doppler factor
Unknown
Orbital elements
Apogee altitude
630.369 km
Perigee altitude
629.614 km
Semi-major axis
7,008.128 km
Eccentricity
0.00005
Inclination
51.8983°
RAAN
251.5229°
Arg. of periapsis
91.5845°
True anomaly
268.51173°
Mean anomaly
268.5179°
Eccentric anomaly
268.51481°
Mean motion
3.69948 °/min
Orbital period
97.31 mins
BSTAR
0.000082123
Loading maneuver chart data...
Computing Atmospheric mass density...
Loading historical data...
Loading historical data...
Loading historical data...
Loading historical data...
Loading historical data...
Loading historical data...
Loading historical data...

Documentation

Showing up to 5 results
|